Simultaneous Nadir Overpasses (SNOs) Predictions

Prediction of SNOs between FY3D and AQUA Satellite Orbit:

Table of predicted SNOs for the next 14.0 days since TLE Epoch: 9/18/2021
Index Date (FY3D) Time (FY3D) Lat,Lon (FY3D) SZA (FY3D ) Date (AQUA) Time (AQUA) Lat,Lon (AQUA) SZA (AQUA ) Distance(km) Time Diff (sec)
1 09/20/2021 01:08:47 -64.80, -11.11 116.15 09/20/2021 01:09:01 -64.81, -11.15 116.15 1.74 14
2 09/20/2021 01:57:46 58.80, 161.01 58.38 09/20/2021 01:56:45 58.81, 160.97 58.34 2.09 61
3 09/22/2021 17:25:35 -66.50, 103.06 113.50 09/22/2021 17:26:00 -66.50, 103.10 113.50 1.81 25
4 09/22/2021 18:14:39 60.84, -84.48 61.28 09/22/2021 18:13:49 60.84, -84.49 61.25 0.27 50
5 09/25/2021 09:42:01 -66.95,-141.49 112.02 09/25/2021 09:42:38 -66.95,-141.49 112.02 0.12 37
6 09/25/2021 10:31:28 62.58, 30.09 63.93 09/25/2021 10:30:49 62.58, 30.11 63.91 1.37 39
7 09/28/2021 01:58:25 -67.28, -25.94 110.65 09/28/2021 01:59:14 -67.29, -25.99 110.64 2.48 49
8 09/28/2021 02:47:52 62.93, 145.74 65.31 09/28/2021 02:47:25 62.94, 145.71 65.30 1.88 27
9 09/30/2021 18:15:04 -68.42, 88.58 108.51 09/30/2021 18:16:04 -68.43, 88.58 108.51 0.43 60



Historial Predications of SNOs between FY3D and AQUA
